Time,TemperatureF,DewpointF,PressureIn,WindDirection,WindDirectionDegrees,WindSpeedMPH,WindSpeedGustMPH,Humidity,HourlyPrecipIn,Conditions,Clouds,dailyrainin,SoftwareType,DateUTC
2013-07-23 00:00:00,70.6,65.9,29.68,SSW,211,3.5,3.5,85,0.00,RA,,0.00,WeatherDisplay:10.37,2013-07-23 04:00:00,
2013-07-23 00:01:00,70.6,66.2,29.68,SSW,211,1.1,0.0,86,0.00,RA,,0.00,WeatherDisplay:10.37,2013-07-23 04:01:00,
2013-07-23 00:02:00,70.6,66.2,29.68,SSW,211,1.1,0.0,86,0.00,RA,,0.00,WeatherDisplay:10.37,2013-07-23 04:02:00,
2013-07-23 00:03:00,70.6,66.2,29.68,SSW,211,0.0,0.0,86,0.00,RA,,0.00,WeatherDisplay:10.37,2013-07-23 04:03:00,
2013-07-23 00:04:00,70.5,66.1,29.68,SSW,210,3.5,3.5,86,0.00,RA,,0.00,WeatherDisplay:10.37,2013-07-23 04:04:00,
2013-07-23 00:09:00,70.4,66.0,29.68,SSW,200,3.5,3.5,86,0.00,RA,,0.00,WeatherDisplay:10.37,2013-07-23 04:09:00,
2013-07-23 00:14:00,70.4,66.0,29.68,SSW,202,4.6,4.6,86,0.00,CLR,,0.00,WeatherDisplay:10.37,2013-07-23 04:14:00,
2013-07-23 00:19:00,70.3,65.9,29.67,SSW,198,5.8,5.8,86,0.00,CLR,,0.00,WeatherDisplay:10.37,2013-07-23 04:19:00,
2013-07-23 00:24:00,70.2,65.8,29.67,SSW,200,3.5,3.5,86,0.00,CLR,,0.00,WeatherDisplay:10.37,2013-07-23 04:24:00,
2013-07-23 00:29:00,70.1,65.7,29.68,SSW,198,1.1,1.1,86,0.00,CLR,,0.00,WeatherDisplay:10.37,2013-07-23 04:29:00,
2013-07-23 00:34:00,70.0,66.0,29.68,SSW,201,3.5,3.5,87,0.00,CLR,,0.00,WeatherDisplay:10.37,2013-07-23 04:34:00,
2013-07-23 00:39:00,69.9,65.9,29.68,SSW,197,4.6,4.6,87,0.00,CLR,,0.00,WeatherDisplay:10.37,2013-07-23 04:39:00,
2013-07-23 00:44:00,69.9,65.9,29.68,SSW,199,1.0,0.0,87,0.00,CLR,,0.00,WeatherDisplay:10.37,2013-07-23 04:44:00,
2013-07-23 00:49:00,69.8,65.8,29.68,SSW,200,0.0,0.7,87,0.00,CLR,,0.00,WeatherDisplay:10.37,2013-07-23 04:49:00,
2013-07-23 00:54:00,69.7,65.7,29.67,SSW,200,0.0,0.0,87,0.00,CLR,,0.00,WeatherDisplay:10.37,2013-07-23 04:54:00,
2013-07-23 00:59:00,69.7,66.0,29.67,SSW,200,3.0,3.0,88,0.00,CLR,,0.00,WeatherDisplay:10.37,2013-07-23 04:59:00,
2013-07-23 01:04:00,69.6,65.9,29.67,SSW,198,2.3,0.0,88,0.00,CLR,,0.00,WeatherDisplay:10.37,2013-07-23 05:04:00,
2013-07-23 01:09:00,69.4,65.7,29.66,SSW,198,1.1,0.0,88,0.00,CLR,,0.00,WeatherDisplay:10.37,2013-07-23 05:09:00,
2013-07-23 01:14:00,69.4,65.7,29.66,SSW,200,3.5,3.5,88,0.00,CLR,,0.00,WeatherDisplay:10.37,2013-07-23 05:14:00,
2013-07-23 01:19:00,69.2,65.5,29.67,SSW,200,0.0,0.0,88,0.00,CLR,,0.00,WeatherDisplay:10.37,2013-07-23 05:19:00,
2013-07-23 01:24:00,69.1,65.4,29.66,SSW,199,0.0,0.0,88,0.00,CLR,,0.00,WeatherDisplay:10.37,2013-07-23 05:24:00,
2013-07-23 01:29:00,69.0,65.6,29.66,SSW,200,0.0,0.0,89,0.00,CLR,,0.00,WeatherDisplay:10.37,2013-07-23 05:29:00,
2013-07-23 01:34:00,68.9,65.5,29.66,SSW,200,2.3,0.0,89,0.00,CLR,,0.00,WeatherDisplay:10.37,2013-07-23 05:34:00,
2013-07-23 01:39:00,68.8,65.4,29.65,SSW,198,4.0,4.0,89,0.00,CLR,,0.00,WeatherDisplay:10.37,2013-07-23 05:39:00,
2013-07-23 01:44:00,68.8,65.4,29.65,SSW,192,4.6,4.6,89,0.00,CLR,,0.00,WeatherDisplay:10.37,2013-07-23 05:44:00,
2013-07-23 01:49:00,68.8,65.4,29.65,SSW,192,3.5,3.5,89,0.00,CLR,,0.00,WeatherDisplay:10.37,2013-07-23 05:49:00,
2013-07-23 01:54:00,68.8,65.4,29.64,SSW,193,3.5,3.5,89,0.00,CLR,,0.00,WeatherDisplay:10.37,2013-07-23 05:54:00,
2013-07-23 01:59:00,68.9,65.5,29.64,South,186,2.3,2.3,89,0.00,CLR,,0.00,WeatherDisplay:10.37,2013-07-23 05:59:00,
2013-07-23 02:04:00,68.9,65.5,29.63,South,184,4.0,4.0,89,0.00,CLR,,0.00,WeatherDisplay:10.37,2013-07-23 06:04:00,
2013-07-23 02:09:00,68.9,65.5,29.63,South,188,2.3,2.3,89,0.00,CLR,,0.00,WeatherDisplay:10.37,2013-07-23 06:09:00,
2013-07-23 02:14:00,68.9,65.5,29.62,South,185,1.1,0.0,89,0.00,CLR,,0.00,WeatherDisplay:10.37,2013-07-23 06:14:00,
2013-07-23 02:19:00,68.9,65.5,29.62,South,185,1.1,1.1,89,0.00,CLR,,0.00,WeatherDisplay:10.37,2013-07-23 06:19:00,
2013-07-23 02:24:00,68.8,65.4,29.62,South,186,1.1,1.1,89,0.00,CLR,,0.00,WeatherDisplay:10.37,2013-07-23 06:24:00,
2013-07-23 02:29:00,68.7,65.3,29.61,South,182,5.8,5.8,89,0.00,CLR,,0.00,WeatherDisplay:10.37,2013-07-23 06:29:00,
2013-07-23 02:34:00,68.7,65.6,29.60,South,191,1.1,1.1,90,0.00,CLR,,0.00,WeatherDisplay:10.37,2013-07-23 06:34:00,
2013-07-23 02:39:00,68.8,65.4,29.60,SSE,161,9.2,9.2,89,0.00,CLR,,0.00,WeatherDisplay:10.37,2013-07-23 06:39:00,
2013-07-23 02:44:00,69.0,65.6,29.61,SSW,200,3.5,3.5,89,0.00,CLR,,0.00,WeatherDisplay:10.37,2013-07-23 06:44:00,
2013-07-23 02:49:00,69.2,65.8,29.61,South,191,2.0,0.0,89,0.00,CLR,,0.00,WeatherDisplay:10.37,2013-07-23 06:49:00,
2013-07-23 02:54:00,69.4,65.7,29.62,South,186,3.5,3.5,88,0.00,CLR,,0.00,WeatherDisplay:10.37,2013-07-23 06:54:00,
2013-07-23 02:59:00,69.5,65.8,29.63,SSW,202,1.1,1.1,88,0.00,CLR,,0.00,WeatherDisplay:10.37,2013-07-23 06:59:00,
2013-07-23 03:04:00,69.4,65.7,29.63,SSW,204,2.3,2.3,88,0.00,CLR,,0.00,WeatherDisplay:10.37,2013-07-23 07:04:00,
2013-07-23 03:09:00,69.4,65.7,29.63,SSW,202,3.5,3.5,88,0.00,CLR,,0.00,WeatherDisplay:10.37,2013-07-23 07:09:00,
2013-07-23 03:14:00,69.4,66.0,29.63,SSW,202,0.0,0.0,89,0.00,CLR,,0.00,WeatherDisplay:10.37,2013-07-23 07:14:00,
2013-07-23 03:19:00,69.4,65.7,29.64,SSW,202,1.1,0.0,88,0.00,CLR,,0.00,WeatherDisplay:10.37,2013-07-23 07:19:00,
2013-07-23 03:24:00,69.3,65.9,29.64,SSW,202,0.0,0.0,89,0.00,CLR,,0.00,WeatherDisplay:10.37,2013-07-23 07:24:00,
2013-07-23 03:29:00,69.3,66.2,29.64,SSW,202,0.0,0.0,90,0.00,CLR,,0.00,WeatherDisplay:10.37,2013-07-23 07:29:00,
2013-07-23 03:34:00,69.0,65.9,29.63,SSW,202,1.1,0.0,90,0.00,CLR,,0.00,WeatherDisplay:10.37,2013-07-23 07:34:00,
2013-07-23 03:39:00,68.7,65.6,29.63,SSW,202,0.0,0.0,90,0.00,CLR,,0.00,WeatherDisplay:10.37,2013-07-23 07:39:00,
2013-07-23 04:51:00,67.7,65.6,29.60,SSW,202,0.0,0.0,93,0.00,CLR,,0.00,WeatherDisplay:10.37,2013-07-23 08:51:00,
2013-07-23 04:56:00,67.6,65.5,29.59,SSW,202,0.0,0.0,93,0.00,CLR,,0.00,WeatherDisplay:10.37,2013-07-23 08:56:00,
2013-07-23 05:01:00,67.5,65.7,29.59,SSW,202,0.0,0.0,94,0.00,CLR,,0.00,WeatherDisplay:10.37,2013-07-23 09:01:00,
2013-07-23 05:06:00,67.5,65.7,29.59,SSW,202,0.0,0.0,94,0.00,CLR,,0.00,WeatherDisplay:10.37,2013-07-23 09:06:00,
2013-07-23 05:11:00,67.6,65.8,29.59,SSW,202,1.1,1.1,94,0.00,CLR,,0.00,WeatherDisplay:10.37,2013-07-23 09:11:00,
2013-07-23 05:16:00,67.7,65.9,29.59,SSW,202,1.1,1.1,94,0.00,CLR,,0.00,WeatherDisplay:10.37,2013-07-23 09:16:00,
2013-07-23 05:21:00,67.8,66.0,29.60,SSW,202,3.5,3.5,94,0.00,CLR,,0.00,WeatherDisplay:10.37,2013-07-23 09:21:00,
2013-07-23 05:26:00,67.9,65.8,29.60,SSW,202,2.3,0.0,93,0.00,CLR,,0.00,WeatherDisplay:10.37,2013-07-23 09:26:00,
2013-07-23 05:31:00,68.0,65.9,29.61,SSW,202,0.0,0.1,93,0.00,CLR,,0.00,WeatherDisplay:10.37,2013-07-23 09:31:00,
2013-07-23 05:36:00,68.2,66.1,29.61,SSW,203,2.3,2.3,93,0.00,CLR,,0.00,WeatherDisplay:10.37,2013-07-23 09:36:00,
2013-07-23 05:41:00,68.4,66.3,29.62,SSW,212,0.0,0.0,93,0.00,CLR,,0.00,WeatherDisplay:10.37,2013-07-23 09:41:00,
2013-07-23 05:46:00,68.5,66.4,29.62,SW,232,1.1,0.0,93,0.00,CLR,,0.00,WeatherDisplay:10.37,2013-07-23 09:46:00,
2013-07-23 05:51:00,68.7,66.6,29.63,West,277,10.4,10.4,93,0.00,CLR,,0.00,WeatherDisplay:10.37,2013-07-23 09:51:00,
2013-07-23 05:56:00,69.4,67.0,29.62,SW,232,4.6,4.6,92,0.00,CLR,,0.00,WeatherDisplay:10.37,2013-07-23 09:56:00,
2013-07-23 06:01:00,69.7,67.0,29.62,West,272,5.8,5.8,91,0.01,RA,,0.01,WeatherDisplay:10.37,2013-07-23 10:01:00,
2013-07-23 06:06:00,69.5,66.8,29.60,SW,219,1.1,0.0,91,0.02,RA,,0.02,WeatherDisplay:10.37,2013-07-23 10:06:00,
2013-07-23 06:11:00,69.1,66.7,29.59,SW,220,0.0,0.0,92,0.02,RA,,0.02,WeatherDisplay:10.37,2013-07-23 10:11:00,
2013-07-23 06:16:00,68.8,66.7,29.59,SW,219,0.0,0.0,93,0.02,,,0.02,WeatherDisplay:10.37,2013-07-23 10:16:00,
2013-07-23 06:21:00,68.4,66.3,29.58,SW,219,0.0,0.1,93,0.02,CLR,,0.02,WeatherDisplay:10.37,2013-07-23 10:21:00,
2013-07-23 06:26:00,68.0,66.5,29.57,SW,219,0.0,0.0,95,0.02,CLR,,0.02,WeatherDisplay:10.37,2013-07-23 10:26:00,
2013-07-23 06:31:00,67.7,65.9,29.58,SW,219,0.0,0.0,94,0.02,CLR,,0.02,WeatherDisplay:10.37,2013-07-23 10:31:00,
2013-07-23 06:36:00,67.5,66.0,29.58,SW,219,0.0,0.0,95,0.02,CLR,,0.02,WeatherDisplay:10.37,2013-07-23 10:36:00,
2013-07-23 06:41:00,67.3,65.8,29.59,SW,219,0.0,0.0,95,0.02,CLR,,0.02,WeatherDisplay:10.37,2013-07-23 10:41:00,
2013-07-23 06:46:00,67.2,65.7,29.59,SW,219,0.0,0.0,95,0.02,CLR,,0.02,WeatherDisplay:10.37,2013-07-23 10:46:00,
2013-07-23 06:51:00,67.1,65.9,29.59,SW,219,0.0,0.0,96,0.02,CLR,,0.02,WeatherDisplay:10.37,2013-07-23 10:51:00,
2013-07-23 06:56:00,67.0,65.8,29.59,SW,219,0.0,0.0,96,0.02,CLR,,0.02,WeatherDisplay:10.37,2013-07-23 10:56:00,
2013-07-23 07:01:00,66.9,65.7,29.60,SW,219,0.0,0.0,96,0.01,CLR,,0.02,WeatherDisplay:10.37,2013-07-23 11:01:00,
2013-07-23 07:06:00,66.8,65.6,29.59,SW,219,0.0,0.0,96,0.00,CLR,,0.02,WeatherDisplay:10.37,2013-07-23 11:06:00,
2013-07-23 07:11:00,66.7,65.5,29.59,SW,219,0.0,0.0,96,0.00,CLR,,0.02,WeatherDisplay:10.37,2013-07-23 11:11:00,
2013-07-23 07:16:00,66.7,65.5,29.59,SW,219,0.0,0.0,96,0.00,CLR,,0.02,WeatherDisplay:10.37,2013-07-23 11:16:00,
2013-07-23 07:21:00,66.6,65.7,29.59,SW,219,0.0,0.0,97,0.00,CLR,,0.02,WeatherDisplay:10.37,2013-07-23 11:21:00,
2013-07-23 07:26:00,66.6,65.7,29.59,SW,219,0.0,0.0,97,0.00,CLR,,0.02,WeatherDisplay:10.37,2013-07-23 11:26:00,
2013-07-23 07:31:00,66.6,65.7,29.59,SW,219,0.0,0.0,97,0.00,CLR,,0.02,WeatherDisplay:10.37,2013-07-23 11:31:00,
2013-07-23 07:36:00,66.6,65.7,29.59,SW,219,0.0,0.0,97,0.00,CLR,,0.02,WeatherDisplay:10.37,2013-07-23 11:36:00,
2013-07-23 07:41:00,66.6,65.7,29.59,SW,219,0.0,0.0,97,0.00,CLR,,0.02,WeatherDisplay:10.37,2013-07-23 11:41:00,
2013-07-23 07:46:00,66.7,65.8,29.59,SW,219,0.0,0.0,97,0.00,CLR,,0.02,WeatherDisplay:10.37,2013-07-23 11:46:00,
2013-07-23 07:51:00,66.9,66.0,29.59,SW,219,0.0,0.0,97,0.00,CLR,,0.02,WeatherDisplay:10.37,2013-07-23 11:51:00,
2013-07-23 07:56:00,66.9,66.0,29.60,SW,219,0.0,0.0,97,0.00,CLR,,0.02,WeatherDisplay:10.37,2013-07-23 11:56:00,
2013-07-23 08:01:00,67.0,66.1,29.60,SW,219,0.0,0.0,97,0.00,CLR,,0.02,WeatherDisplay:10.37,2013-07-23 12:01:00,
2013-07-23 08:06:00,67.2,66.3,29.60,SW,219,0.0,0.0,97,0.00,CLR,,0.02,WeatherDisplay:10.37,2013-07-23 12:06:00,
2013-07-23 08:11:00,67.2,66.3,29.60,SW,219,0.0,0.0,97,0.00,CLR,,0.02,WeatherDisplay:10.37,2013-07-23 12:11:00,
2013-07-23 08:16:00,67.2,66.3,29.60,SW,219,2.3,0.0,97,0.00,CLR,,0.02,WeatherDisplay:10.37,2013-07-23 12:16:00,
2013-07-23 08:21:00,67.3,66.4,29.60,SW,219,0.0,0.0,97,0.00,CLR,,0.02,WeatherDisplay:10.37,2013-07-23 12:21:00,
2013-07-23 08:26:00,67.3,66.4,29.60,SW,219,0.0,0.0,97,0.00,CLR,,0.02,WeatherDisplay:10.37,2013-07-23 12:26:00,
2013-07-23 08:31:00,67.4,66.5,29.60,SW,219,0.0,0.0,97,0.00,CLR,,0.02,WeatherDisplay:10.37,2013-07-23 12:31:00,
2013-07-23 08:36:00,67.6,66.7,29.60,SW,219,0.0,0.0,97,0.00,CLR,,0.02,WeatherDisplay:10.37,2013-07-23 12:36:00,
2013-07-23 08:41:00,67.8,66.9,29.60,SW,219,0.0,0.0,97,0.00,CLR,,0.02,WeatherDisplay:10.37,2013-07-23 12:41:00,
2013-07-23 08:46:00,68.1,67.2,29.60,SW,219,0.0,0.1,97,0.00,CLR,,0.02,WeatherDisplay:10.37,2013-07-23 12:46:00,
2013-07-23 08:51:00,68.3,67.4,29.60,SW,219,1.0,0.0,97,0.00,CLR,,0.02,WeatherDisplay:10.37,2013-07-23 12:51:00,
2013-07-23 08:56:00,68.3,67.4,29.60,SW,217,0.0,0.0,97,0.00,CLR,,0.02,WeatherDisplay:10.37,2013-07-23 12:56:00,
2013-07-23 09:01:00,68.5,67.6,29.60,SW,217,0.0,0.0,97,0.00,CLR,,0.02,WeatherDisplay:10.37,2013-07-23 13:01:00,
2013-07-23 09:06:00,68.8,67.9,29.60,SW,219,0.0,0.0,97,0.00,CLR,,0.02,WeatherDisplay:10.37,2013-07-23 13:06:00,
2013-07-23 09:11:00,68.8,67.9,29.60,SW,219,0.0,0.0,97,0.00,CLR,,0.02,WeatherDisplay:10.37,2013-07-23 13:11:00,
2013-07-23 09:17:00,69.0,68.1,29.60,WSW,245,3.5,3.5,97,0.00,CLR,,0.02,WeatherDisplay:10.37,2013-07-23 13:17:00,
2013-07-23 09:22:00,69.0,68.1,29.60,WSW,245,0.0,0.0,97,0.00,CLR,,0.02,WeatherDisplay:10.37,2013-07-23 13:22:00,
2013-07-23 09:27:00,69.1,68.2,29.60,WSW,253,0.0,0.0,97,0.00,CLR,,0.02,WeatherDisplay:10.37,2013-07-23 13:27:00,
2013-07-23 09:32:00,69.1,68.2,29.60,WSW,243,4.6,4.6,97,0.00,CLR,,0.02,WeatherDisplay:10.37,2013-07-23 13:32:00,
2013-07-23 09:37:00,69.0,68.1,29.60,SW,215,5.8,5.8,97,0.00,CLR,,0.02,WeatherDisplay:10.37,2013-07-23 13:37:00,
2013-07-23 09:42:00,68.9,67.7,29.60,SW,228,1.1,1.1,96,0.00,CLR,,0.02,WeatherDisplay:10.37,2013-07-23 13:42:00,
2013-07-23 09:47:00,68.8,67.6,29.60,WSW,254,4.0,4.0,96,0.00,CLR,,0.02,WeatherDisplay:10.37,2013-07-23 13:47:00,
2013-07-23 09:52:00,68.6,67.4,29.60,South,178,1.1,1.1,96,0.00,CLR,,0.02,WeatherDisplay:10.37,2013-07-23 13:52:00,
2013-07-23 09:57:00,68.4,67.2,29.61,WSW,246,0.0,0.0,96,0.00,CLR,,0.02,WeatherDisplay:10.37,2013-07-23 13:57:00,
2013-07-23 10:02:00,68.3,67.1,29.61,WSW,255,0.0,0.0,96,0.00,CLR,,0.02,WeatherDisplay:10.37,2013-07-23 14:02:00,
2013-07-23 10:07:00,68.3,66.8,29.61,NW,320,0.0,0.0,95,0.00,CLR,,0.02,WeatherDisplay:10.37,2013-07-23 14:07:00,
2013-07-23 10:12:00,68.6,67.1,29.60,NW,317,1.1,1.1,95,0.00,CLR,,0.02,WeatherDisplay:10.37,2013-07-23 14:12:00,
2013-07-23 10:17:00,68.9,67.4,29.60,NW,315,1.1,1.1,95,0.00,CLR,,0.02,WeatherDisplay:10.37,2013-07-23 14:17:00,
2013-07-23 10:22:00,69.2,67.4,29.60,WNW,297,3.5,3.5,94,0.00,CLR,,0.02,WeatherDisplay:10.37,2013-07-23 14:22:00,
2013-07-23 10:27:00,69.2,66.8,29.61,WNW,290,0.0,0.7,92,0.00,CLR,,0.02,WeatherDisplay:10.37,2013-07-23 14:27:00,
2013-07-23 10:32:00,69.3,66.9,29.61,NW,322,3.5,0.0,92,0.00,CLR,,0.02,WeatherDisplay:10.37,2013-07-23 14:32:00,
2013-07-23 10:37:00,69.7,67.0,29.62,NW,326,0.0,0.0,91,0.00,CLR,,0.02,WeatherDisplay:10.37,2013-07-23 14:37:00,
2013-07-23 10:42:00,70.1,67.0,29.62,WNW,303,3.0,3.0,90,0.00,CLR,,0.02,WeatherDisplay:10.37,2013-07-23 14:42:00,
2013-07-23 10:47:00,70.3,66.6,29.63,WNW,286,0.0,0.1,88,0.00,CLR,,0.02,WeatherDisplay:10.37,2013-07-23 14:47:00,
2013-07-23 10:52:00,70.4,66.0,29.63,WNW,283,2.0,2.0,86,0.00,CLR,,0.02,WeatherDisplay:10.37,2013-07-23 14:52:00,
2013-07-23 10:57:00,70.7,66.3,29.63,SSE,157,0.0,0.1,86,0.00,CLR,,0.02,WeatherDisplay:10.37,2013-07-23 14:57:00,
2013-07-23 11:02:00,71.0,66.3,29.63,North,350,0.0,0.3,85,0.00,CLR,,0.02,WeatherDisplay:10.37,2013-07-23 15:02:00,
2013-07-23 11:07:00,71.2,65.8,29.63,NW,309,4.6,4.6,83,0.00,CLR,,0.02,WeatherDisplay:10.37,2013-07-23 15:07:00,
2013-07-23 11:12:00,71.1,66.0,29.64,NNW,333,1.1,0.0,84,0.00,CLR,,0.02,WeatherDisplay:10.37,2013-07-23 15:12:00,
2013-07-23 11:17:00,70.9,65.5,29.64,West,277,3.5,3.5,83,0.00,CLR,,0.02,WeatherDisplay:10.37,2013-07-23 15:17:00,
2013-07-23 11:22:00,70.9,65.8,29.64,SW,232,4.0,4.0,84,0.00,CLR,,0.02,WeatherDisplay:10.37,2013-07-23 15:22:00,
2013-07-23 11:27:00,71.2,66.1,29.64,SE,126,3.5,3.5,84,0.00,CLR,,0.02,WeatherDisplay:10.37,2013-07-23 15:27:00,
2013-07-23 11:32:00,71.4,65.3,29.65,North,10,0.0,0.0,81,0.00,CLR,,0.02,WeatherDisplay:10.37,2013-07-23 15:32:00,
2013-07-23 11:37:00,71.4,65.3,29.65,SSW,192,5.0,5.0,81,0.00,CLR,,0.02,WeatherDisplay:10.37,2013-07-23 15:37:00,
2013-07-23 11:42:00,71.7,65.2,29.66,WNW,290,2.3,2.3,80,0.00,CLR,,0.02,WeatherDisplay:10.37,2013-07-23 15:42:00,
2013-07-23 11:47:00,71.7,64.8,29.66,WSW,252,2.3,2.3,79,0.00,CLR,,0.02,WeatherDisplay:10.37,2013-07-23 15:47:00,
2013-07-23 11:52:00,72.1,65.2,29.66,West,269,1.1,1.1,79,0.00,CLR,,0.02,WeatherDisplay:10.37,2013-07-23 15:52:00,
2013-07-23 11:57:00,72.2,65.3,29.66,West,271,6.9,6.9,79,0.00,CLR,,0.02,WeatherDisplay:10.37,2013-07-23 15:57:00,
2013-07-23 12:02:00,72.3,64.7,29.66,ENE,65,3.5,3.5,77,0.00,CLR,,0.02,WeatherDisplay:10.37,2013-07-23 16:02:00,
2013-07-23 12:07:00,72.3,63.5,29.66,NNW,348,6.9,6.9,74,0.00,CLR,,0.02,WeatherDisplay:10.37,2013-07-23 16:07:00,
2013-07-23 12:12:00,73.0,64.6,29.66,North,5,2.3,2.3,75,0.00,CLR,,0.02,WeatherDisplay:10.37,2013-07-23 16:12:00,
2013-07-23 12:17:00,73.6,65.2,29.66,SSW,194,4.6,4.6,75,0.00,CLR,,0.02,WeatherDisplay:10.37,2013-07-23 16:17:00,
2013-07-23 12:22:00,74.2,65.0,29.66,NNW,334,5.0,5.0,73,0.00,CLR,,0.02,WeatherDisplay:10.37,2013-07-23 16:22:00,
2013-07-23 12:27:00,74.2,64.2,29.67,WSW,244,4.0,4.0,71,0.00,CLR,,0.02,WeatherDisplay:10.37,2013-07-23 16:27:00,
2013-07-23 12:32:00,74.2,63.8,29.67,WNW,290,4.6,4.6,70,0.00,CLR,,0.02,WeatherDisplay:10.37,2013-07-23 16:32:00,
2013-07-23 12:38:00,74.5,63.7,29.66,WNW,296,6.9,6.9,69,0.00,CLR,,0.02,WeatherDisplay:10.37,2013-07-23 16:38:00,
2013-07-23 12:43:00,74.7,63.4,29.66,ENE,61,6.9,6.9,68,0.00,CLR,,0.02,WeatherDisplay:10.37,2013-07-23 16:43:00,
2013-07-23 12:48:00,74.6,63.8,29.66,NW,308,3.5,3.5,69,0.00,CLR,,0.02,WeatherDisplay:10.37,2013-07-23 16:48:00,
2013-07-23 12:53:00,74.5,64.1,29.66,West,268,3.5,3.5,70,0.00,CLR,,0.02,WeatherDisplay:10.37,2013-07-23 16:53:00,
2013-07-23 12:58:00,74.1,63.3,29.66,North,355,5.8,5.8,69,0.00,CLR,,0.02,WeatherDisplay:10.37,2013-07-23 16:58:00,
2013-07-23 13:03:00,73.9,63.5,29.67,West,261,0.0,0.0,70,0.00,CLR,,0.02,WeatherDisplay:10.37,2013-07-23 17:03:00,
2013-07-23 13:08:00,73.3,61.7,29.67,WNW,285,5.8,5.8,67,0.00,CLR,,0.02,WeatherDisplay:10.37,2013-07-23 17:08:00,
2013-07-23 13:13:00,73.0,62.2,29.67,North,5,4.6,4.6,69,0.00,CLR,,0.02,WeatherDisplay:10.37,2013-07-23 17:13:00,
2013-07-23 13:18:00,72.5,62.2,29.66,SSW,213,9.2,9.2,70,0.00,CLR,,0.02,WeatherDisplay:10.37,2013-07-23 17:18:00,
2013-07-23 13:23:00,72.8,62.4,29.67,SW,225,5.0,5.0,70,0.00,CLR,,0.02,WeatherDisplay:10.37,2013-07-23 17:23:00,
2013-07-23 13:28:00,72.8,61.2,29.67,WNW,297,9.2,9.2,67,0.00,CLR,,0.02,WeatherDisplay:10.37,2013-07-23 17:28:00,
2013-07-23 13:33:00,72.5,61.7,29.67,NE,35,1.1,1.1,69,0.00,CLR,,0.02,WeatherDisplay:10.37,2013-07-23 17:33:00,
2013-07-23 13:38:00,71.9,60.8,29.67,NNW,342,1.1,1.1,68,0.00,CLR,,0.02,WeatherDisplay:10.37,2013-07-23 17:38:00,
2013-07-23 13:43:00,71.6,60.5,29.67,WSW,257,2.3,2.3,68,0.00,CLR,,0.02,WeatherDisplay:10.37,2013-07-23 17:43:00,
2013-07-23 13:48:00,71.3,60.2,29.68,North,360,3.5,3.5,68,0.00,CLR,,0.02,WeatherDisplay:10.37,2013-07-23 17:48:00,
2013-07-23 13:53:00,71.6,61.3,29.67,WSW,238,3.5,3.5,70,0.00,CLR,,0.02,WeatherDisplay:10.37,2013-07-23 17:53:00,
2013-07-23 13:58:00,71.7,60.6,29.68,ENE,71,3.5,3.5,68,0.00,CLR,,0.02,WeatherDisplay:10.37,2013-07-23 17:58:00,
2013-07-23 14:03:00,72.0,60.0,29.68,WNW,299,3.5,3.5,66,0.00,CLR,,0.02,WeatherDisplay:10.37,2013-07-23 18:03:00,
2013-07-23 14:08:00,72.0,60.4,29.67,WSW,249,3.5,3.5,67,0.00,CLR,,0.02,WeatherDisplay:10.37,2013-07-23 18:08:00,
2013-07-23 14:13:00,72.6,60.2,29.68,SSW,212,9.2,9.2,65,0.00,CLR,,0.02,WeatherDisplay:10.37,2013-07-23 18:13:00,
2013-07-23 14:18:00,73.1,60.2,29.68,NE,42,6.9,6.9,64,0.00,CLR,,0.02,WeatherDisplay:10.37,2013-07-23 18:18:00,
2013-07-23 14:23:00,72.6,60.6,29.68,SW,227,5.8,5.8,66,0.00,CLR,,0.02,WeatherDisplay:10.37,2013-07-23 18:23:00,
2013-07-23 14:29:00,73.2,61.6,29.68,East,96,3.5,3.5,67,0.00,CLR,,0.02,WeatherDisplay:10.37,2013-07-23 18:29:00,
2013-07-23 14:34:00,73.9,61.0,29.68,SW,219,12.7,12.7,64,0.00,CLR,,0.02,WeatherDisplay:10.37,2013-07-23 18:34:00,
2013-07-23 14:39:00,74.1,61.1,29.69,South,175,16.1,16.1,64,0.00,CLR,,0.02,WeatherDisplay:10.37,2013-07-23 18:39:00,
2013-07-23 14:44:00,74.0,60.6,29.68,SSW,192,3.5,3.5,63,0.00,CLR,,0.02,WeatherDisplay:10.37,2013-07-23 18:44:00,
2013-07-23 14:49:00,74.3,60.0,29.68,West,271,5.0,5.0,61,0.00,CLR,,0.02,WeatherDisplay:10.37,2013-07-23 18:49:00,
2013-07-23 14:54:00,73.5,60.6,29.68,West,263,4.0,4.0,64,0.00,CLR,,0.02,WeatherDisplay:10.37,2013-07-23 18:54:00,
2013-07-23 14:59:00,73.2,59.8,29.68,NE,54,11.5,11.5,63,0.00,CLR,,0.02,WeatherDisplay:10.37,2013-07-23 18:59:00,
2013-07-23 15:04:00,73.5,60.1,29.68,NNE,33,11.5,11.5,63,0.00,CLR,,0.02,WeatherDisplay:10.37,2013-07-23 19:04:00,
2013-07-23 15:09:00,73.5,59.7,29.68,SSW,213,11.5,11.5,62,0.00,CLR,,0.02,WeatherDisplay:10.37,2013-07-23 19:09:00,
2013-07-23 15:14:00,73.8,60.4,29.69,WSW,245,1.1,1.1,63,0.00,CLR,,0.02,WeatherDisplay:10.37,2013-07-23 19:14:00,
2013-07-23 15:19:00,73.7,58.9,29.69,West,267,6.0,6.0,60,0.00,CLR,,0.02,WeatherDisplay:10.37,2013-07-23 19:19:00,
2013-07-23 15:25:00,73.1,57.9,29.69,South,177,5.0,5.0,59,0.00,CLR,,0.02,WeatherDisplay:10.37,2013-07-23 19:25:00,
2013-07-23 15:30:00,72.4,58.6,29.69,NNE,17,3.5,3.5,62,0.00,CLR,,0.02,WeatherDisplay:10.37,2013-07-23 19:30:00,
2013-07-23 15:35:00,72.5,58.3,29.69,WSW,241,6.9,6.9,61,0.00,CLR,,0.02,WeatherDisplay:10.37,2013-07-23 19:35:00,
2013-07-23 15:41:00,72.8,59.9,29.69,SSW,205,3.5,3.5,64,0.00,CLR,,0.02,WeatherDisplay:10.37,2013-07-23 19:41:00,
2013-07-23 15:46:00,72.8,58.6,29.70,NNE,12,5.8,5.8,61,0.00,CLR,,0.02,WeatherDisplay:10.37,2013-07-23 19:46:00,
2013-07-23 15:51:00,72.6,57.9,29.70,West,273,4.6,4.6,60,0.00,CLR,,0.02,WeatherDisplay:10.37,2013-07-23 19:51:00,
2013-07-23 15:57:00,71.9,57.3,29.70,NW,308,3.5,3.5,60,0.00,CLR,,0.02,WeatherDisplay:10.37,2013-07-23 19:57:00,
2013-07-23 16:02:00,72.0,58.3,29.70,WNW,298,6.0,6.0,62,0.00,CLR,,0.02,WeatherDisplay:10.37,2013-07-23 20:02:00,
2013-07-23 16:07:00,72.1,57.4,29.70,WSW,256,13.0,13.0,60,0.00,CLR,,0.02,WeatherDisplay:10.37,2013-07-23 20:07:00,
2013-07-23 16:12:00,71.9,58.6,29.70,WSW,254,4.6,4.6,63,0.00,CLR,,0.02,WeatherDisplay:10.37,2013-07-23 20:12:00,
2013-07-23 16:18:00,71.7,57.5,29.70,East,101,6.9,6.9,61,0.00,CLR,,0.02,WeatherDisplay:10.37,2013-07-23 20:18:00,
2013-07-23 16:24:00,71.2,56.1,29.71,North,360,3.5,3.5,59,0.00,CLR,,0.02,WeatherDisplay:10.37,2013-07-23 20:24:00,
2013-07-23 16:29:00,70.8,57.1,29.70,ESE,122,3.5,3.5,62,0.00,CLR,,0.02,WeatherDisplay:10.37,2013-07-23 20:29:00,
2013-07-23 16:34:00,71.0,56.9,29.71,West,262,6.0,6.0,61,0.00,CLR,,0.02,WeatherDisplay:10.37,2013-07-23 20:34:00,
2013-07-23 16:39:00,71.3,57.2,29.71,WNW,289,11.5,11.5,61,0.00,CLR,,0.02,WeatherDisplay:10.37,2013-07-23 20:39:00,
2013-07-23 16:44:00,70.7,57.9,29.71,NW,318,4.6,4.6,64,0.00,CLR,,0.02,WeatherDisplay:10.37,2013-07-23 20:44:00,
2013-07-23 16:49:00,70.6,57.8,29.71,SW,223,6.9,6.9,64,0.00,CLR,,0.02,WeatherDisplay:10.37,2013-07-23 20:49:00,
2013-07-23 16:54:00,70.8,58.4,29.71,NW,307,5.8,5.8,65,0.00,CLR,,0.02,WeatherDisplay:10.37,2013-07-23 20:54:00,
2013-07-23 16:59:00,70.3,58.0,29.71,SW,215,4.0,4.0,65,0.00,CLR,,0.02,WeatherDisplay:10.37,2013-07-23 20:59:00,
2013-07-23 17:04:00,70.1,56.9,29.71,SSW,192,4.6,4.6,63,0.00,CLR,,0.02,WeatherDisplay:10.37,2013-07-23 21:04:00,
2013-07-23 17:10:00,69.8,56.2,29.72,WSW,252,13.8,13.8,62,0.00,CLR,,0.02,WeatherDisplay:10.37,2013-07-23 21:10:00,
2013-07-23 17:15:00,68.9,56.2,29.72,South,175,11.5,11.5,64,0.00,CLR,,0.02,WeatherDisplay:10.37,2013-07-23 21:15:00,
2013-07-23 17:20:00,68.1,55.9,29.73,NE,49,3.5,3.5,65,0.00,CLR,,0.02,WeatherDisplay:10.37,2013-07-23 21:20:00,
2013-07-23 17:25:00,67.4,55.6,29.73,NW,309,7.0,7.0,66,0.00,CLR,,0.02,WeatherDisplay:10.37,2013-07-23 21:25:00,
2013-07-23 17:31:00,66.7,56.2,29.73,WNW,300,0.0,0.1,69,0.00,CLR,,0.02,WeatherDisplay:10.37,2013-07-23 21:31:00,
2013-07-23 17:36:00,66.9,56.0,29.73,SE,134,12.7,12.7,68,0.00,CLR,,0.02,WeatherDisplay:10.37,2013-07-23 21:36:00,
2013-07-23 17:41:00,66.6,55.7,29.74,NNW,347,3.5,3.5,68,0.00,CLR,,0.02,WeatherDisplay:10.37,2013-07-23 21:41:00,
2013-07-23 17:46:00,66.2,55.7,29.74,SW,232,3.5,0.0,69,0.00,CLR,,0.02,WeatherDisplay:10.37,2013-07-23 21:46:00,
2013-07-23 17:51:00,65.8,55.3,29.74,WNW,302,5.0,5.0,69,0.00,CLR,,0.02,WeatherDisplay:10.37,2013-07-23 21:51:00,
2013-07-23 17:56:00,65.1,54.7,29.74,SW,218,4.6,4.6,69,0.00,CLR,,0.02,WeatherDisplay:10.37,2013-07-23 21:56:00,
2013-07-23 18:02:00,64.7,54.7,29.73,SE,140,5.8,5.8,70,0.00,CLR,,0.02,WeatherDisplay:10.37,2013-07-23 22:02:00,
2013-07-23 18:07:00,64.5,54.9,29.74,NE,53,3.5,3.5,71,0.00,CLR,,0.02,WeatherDisplay:10.37,2013-07-23 22:07:00,
2013-07-23 18:13:00,64.4,54.8,29.74,NNE,25,5.0,5.0,71,0.00,CLR,,0.02,WeatherDisplay:10.37,2013-07-23 22:13:00,
2013-07-23 18:18:00,64.0,54.4,29.74,NW,307,3.5,3.5,71,0.00,CLR,,0.02,WeatherDisplay:10.37,2013-07-23 22:18:00,
2013-07-23 18:23:00,63.8,54.6,29.74,ENE,71,2.3,2.3,72,0.00,CLR,,0.02,WeatherDisplay:10.37,2013-07-23 22:23:00,
2013-07-23 18:28:00,63.7,54.5,29.74,North,10,6.9,6.9,72,0.00,CLR,,0.02,WeatherDisplay:10.37,2013-07-23 22:28:00,
2013-07-23 18:33:00,63.3,54.1,29.75,West,269,5.8,5.8,72,0.00,CLR,,0.02,WeatherDisplay:10.37,2013-07-23 22:33:00,
2013-07-23 18:38:00,63.1,54.3,29.75,NW,319,3.5,3.5,73,0.00,CLR,,0.02,WeatherDisplay:10.37,2013-07-23 22:38:00,
2013-07-23 18:43:00,62.9,53.7,29.75,NW,315,9.2,9.2,72,0.00,CLR,,0.02,WeatherDisplay:10.37,2013-07-23 22:43:00,
2013-07-23 18:48:00,62.8,53.6,29.75,WSW,256,6.0,6.0,72,0.00,CLR,,0.02,WeatherDisplay:10.37,2013-07-23 22:48:00,
2013-07-23 18:53:00,62.8,54.0,29.75,NW,311,6.9,6.9,73,0.00,CLR,,0.02,WeatherDisplay:10.37,2013-07-23 22:53:00,
2013-07-23 18:58:00,63.0,53.4,29.75,NW,314,0.0,0.0,71,0.00,CLR,,0.02,WeatherDisplay:10.37,2013-07-23 22:58:00,
2013-07-23 19:03:00,62.9,53.0,29.76,NW,307,10.4,10.4,70,0.00,CLR,,0.02,WeatherDisplay:10.37,2013-07-23 23:03:00,
2013-07-23 19:08:00,62.7,52.8,29.76,SSW,207,3.5,3.5,70,0.00,CLR,,0.02,WeatherDisplay:10.37,2013-07-23 23:08:00,
2013-07-23 19:13:00,62.5,53.0,29.76,NNW,340,6.9,6.9,71,0.00,CLR,,0.02,WeatherDisplay:10.37,2013-07-23 23:13:00,
2013-07-23 19:18:00,62.4,52.9,29.76,NE,56,4.0,4.0,71,0.00,CLR,,0.02,WeatherDisplay:10.37,2013-07-23 23:18:00,
2013-07-23 19:23:00,62.3,52.8,29.76,ESE,103,1.1,1.1,71,0.00,CLR,,0.02,WeatherDisplay:10.37,2013-07-23 23:23:00,
2013-07-23 19:28:00,62.3,52.8,29.76,NE,44,0.0,0.0,71,0.00,CLR,,0.02,WeatherDisplay:10.37,2013-07-23 23:28:00,
2013-07-23 19:33:00,62.3,53.2,29.76,NE,54,3.5,3.5,72,0.00,CLR,,0.02,WeatherDisplay:10.37,2013-07-23 23:33:00,
2013-07-23 19:39:00,62.3,52.8,29.76,WSW,250,4.6,4.6,71,0.00,CLR,,0.02,WeatherDisplay:10.37,2013-07-23 23:39:00,
2013-07-23 19:44:00,62.2,52.7,29.77,WNW,302,3.5,3.5,71,0.00,CLR,,0.02,WeatherDisplay:10.37,2013-07-23 23:44:00,
2013-07-23 19:49:00,61.9,52.0,29.76,NNE,19,4.6,4.6,70,0.00,CLR,,0.02,WeatherDisplay:10.37,2013-07-23 23:49:00,
2013-07-23 19:54:00,61.4,51.5,29.77,NW,319,3.5,3.5,70,0.00,CLR,,0.02,WeatherDisplay:10.37,2013-07-23 23:54:00,
2013-07-23 19:59:00,61.1,51.6,29.77,NW,322,0.0,0.0,71,0.00,CLR,,0.02,WeatherDisplay:10.37,2013-07-23 23:59:00,
2013-07-23 20:05:00,60.9,51.8,29.77,NNW,336,11.5,11.5,72,0.00,CLR,,0.02,WeatherDisplay:10.37,2013-07-24 00:05:00,
2013-07-23 20:10:00,60.7,51.6,29.78,North,349,0.0,0.2,72,0.00,CLR,,0.02,WeatherDisplay:10.37,2013-07-24 00:10:00,
2013-07-23 20:15:00,60.6,51.5,29.78,North,10,3.5,3.5,72,0.00,CLR,,0.02,WeatherDisplay:10.37,2013-07-24 00:15:00,
2013-07-23 20:20:00,60.6,51.5,29.78,NNE,30,1.0,1.0,72,0.00,CLR,,0.02,WeatherDisplay:10.37,2013-07-24 00:20:00,
2013-07-23 20:25:00,60.5,51.4,29.78,ENE,73,5.8,5.8,72,0.00,CLR,,0.02,WeatherDisplay:10.37,2013-07-24 00:25:00,
2013-07-23 20:30:00,60.5,51.0,29.78,West,272,6.9,6.9,71,0.00,CLR,,0.02,WeatherDisplay:10.37,2013-07-24 00:30:00,
2013-07-23 20:36:00,60.4,51.0,29.79,NNE,24,3.5,0.0,71,0.00,CLR,,0.02,WeatherDisplay:10.37,2013-07-24 00:36:00,
2013-07-23 20:41:00,60.3,51.6,29.79,NNE,33,1.1,0.0,73,0.00,CLR,,0.02,WeatherDisplay:10.37,2013-07-24 00:41:00,
2013-07-23 20:46:00,60.1,51.4,29.79,NNW,333,1.1,1.1,73,0.00,CLR,,0.02,WeatherDisplay:10.37,2013-07-24 00:46:00,
2013-07-23 20:51:00,60.0,50.9,29.79,NNW,346,0.0,0.0,72,0.00,CLR,,0.02,WeatherDisplay:10.37,2013-07-24 00:51:00,
2013-07-23 20:56:00,59.9,50.8,29.80,NW,321,0.0,0.0,72,0.00,CLR,,0.02,WeatherDisplay:10.37,2013-07-24 00:56:00,
2013-07-23 21:01:00,59.8,50.4,29.79,NW,321,1.1,0.0,71,0.00,CLR,,0.02,WeatherDisplay:10.37,2013-07-24 01:01:00,
2013-07-23 21:06:00,59.6,50.6,29.80,NW,321,1.1,0.0,72,0.00,CLR,,0.02,WeatherDisplay:10.37,2013-07-24 01:06:00,
2013-07-23 21:11:00,59.5,50.5,29.80,NNW,331,3.5,3.5,72,0.00,CLR,,0.02,WeatherDisplay:10.37,2013-07-24 01:11:00,
2013-07-23 21:17:00,59.5,50.8,29.80,NNW,331,0.0,0.0,73,0.00,CLR,,0.02,WeatherDisplay:10.37,2013-07-24 01:17:00,
2013-07-23 21:23:00,59.4,50.0,29.80,WNW,298,3.5,3.5,71,0.00,CLR,,0.02,WeatherDisplay:10.37,2013-07-24 01:23:00,
2013-07-23 21:28:00,59.2,50.2,29.80,NW,313,0.0,0.0,72,0.00,CLR,,0.02,WeatherDisplay:10.37,2013-07-24 01:28:00,
2013-07-23 21:33:00,59.1,50.5,29.80,NNW,330,0.0,0.0,73,0.00,CLR,,0.02,WeatherDisplay:10.37,2013-07-24 01:33:00,
2013-07-23 21:38:00,59.0,50.0,29.81,NW,323,0.0,0.1,72,0.00,CLR,,0.02,WeatherDisplay:10.37,2013-07-24 01:38:00,
2013-07-23 21:43:00,59.0,50.4,29.81,NW,313,3.0,3.0,73,0.00,CLR,,0.02,WeatherDisplay:10.37,2013-07-24 01:43:00,
2013-07-23 21:48:00,59.0,50.4,29.81,NNW,330,2.3,0.0,73,0.00,CLR,,0.02,WeatherDisplay:10.37,2013-07-24 01:48:00,
2013-07-23 21:53:00,59.0,50.0,29.81,NNW,331,2.3,2.3,72,0.00,CLR,,0.02,WeatherDisplay:10.37,2013-07-24 01:53:00,
2013-07-23 21:58:00,59.0,50.4,29.81,NW,304,3.0,3.0,73,0.00,CLR,,0.02,WeatherDisplay:10.37,2013-07-24 01:58:00,
2013-07-23 22:03:00,59.0,50.4,29.82,NW,323,1.1,1.1,73,0.00,CLR,,0.02,WeatherDisplay:10.37,2013-07-24 02:03:00,
2013-07-23 22:08:00,59.0,51.4,29.82,WNW,288,0.0,0.0,76,0.00,CLR,,0.02,WeatherDisplay:10.37,2013-07-24 02:08:00,
2013-07-23 22:13:00,58.7,50.4,29.83,WNW,298,0.0,0.0,74,0.00,CLR,,0.02,WeatherDisplay:10.37,2013-07-24 02:13:00,
2013-07-23 22:18:00,58.7,50.4,29.83,WNW,298,3.5,3.5,74,0.00,CLR,,0.02,WeatherDisplay:10.37,2013-07-24 02:18:00,
2013-07-23 22:23:00,58.6,50.7,29.83,WNW,300,0.0,0.0,75,0.00,CLR,,0.02,WeatherDisplay:10.37,2013-07-24 02:23:00,
2013-07-23 22:28:00,58.5,50.6,29.83,WNW,288,0.0,0.0,75,0.00,CLR,,0.02,WeatherDisplay:10.37,2013-07-24 02:28:00,
2013-07-23 22:34:00,58.6,50.7,29.84,WNW,294,0.0,0.0,75,0.00,CLR,,0.02,WeatherDisplay:10.37,2013-07-24 02:34:00,
2013-07-23 22:39:00,58.6,50.7,29.84,WNW,298,0.0,0.0,75,0.00,CLR,,0.02,WeatherDisplay:10.37,2013-07-24 02:39:00,
2013-07-23 22:44:00,58.6,51.1,29.84,WNW,298,0.0,0.1,76,0.00,CLR,,0.02,WeatherDisplay:10.37,2013-07-24 02:44:00,
2013-07-23 22:49:00,58.4,50.5,29.84,WNW,297,2.3,2.3,75,0.00,CLR,,0.02,WeatherDisplay:10.37,2013-07-24 02:49:00,
2013-07-23 22:54:00,58.3,50.8,29.84,WNW,296,1.1,0.0,76,0.00,CLR,,0.02,WeatherDisplay:10.37,2013-07-24 02:54:00,
2013-07-23 22:59:00,58.1,49.9,29.85,NNE,14,3.5,0.0,74,0.00,CLR,,0.02,WeatherDisplay:10.37,2013-07-24 02:59:00,
2013-07-23 23:04:00,57.9,49.7,29.85,NNE,14,0.0,0.0,74,0.00,CLR,,0.02,WeatherDisplay:10.37,2013-07-24 03:04:00,
2013-07-23 23:09:00,57.7,49.8,29.85,NNE,17,1.1,0.0,75,0.00,CLR,,0.02,WeatherDisplay:10.37,2013-07-24 03:09:00,
2013-07-23 23:14:00,57.5,49.6,29.85,NNE,17,0.0,0.0,75,0.00,CLR,,0.02,WeatherDisplay:10.37,2013-07-24 03:14:00,
2013-07-23 23:19:00,57.3,49.4,29.85,NNE,18,0.0,0.0,75,0.00,CLR,,0.02,WeatherDisplay:10.37,2013-07-24 03:19:00,
2013-07-23 23:24:00,57.0,49.2,29.86,NNE,19,0.0,0.0,75,0.00,CLR,,0.02,WeatherDisplay:10.37,2013-07-24 03:24:00,
2013-07-23 23:29:00,56.6,49.5,29.85,NNE,15,0.0,0.0,77,0.00,CLR,,0.02,WeatherDisplay:10.37,2013-07-24 03:29:00,
2013-07-23 23:34:00,56.2,49.4,29.86,NNE,17,1.1,1.1,78,0.00,CLR,,0.02,WeatherDisplay:10.37,2013-07-24 03:34:00,
2013-07-23 23:39:00,55.9,49.1,29.86,NNE,12,0.0,0.0,78,0.00,CLR,,0.02,WeatherDisplay:10.37,2013-07-24 03:39:00,
2013-07-23 23:44:00,55.7,48.9,29.86,North,5,0.0,0.0,78,0.00,CLR,,0.02,WeatherDisplay:10.37,2013-07-24 03:44:00,
2013-07-23 23:50:00,55.6,48.8,29.86,NW,315,1.1,0.0,78,0.00,CLR,,0.02,WeatherDisplay:10.37,2013-07-24 03:50:00,
2013-07-23 23:55:00,55.5,48.8,29.87,NW,316,0.0,0.0,78,0.00,CLR,,0.02,WeatherDisplay:10.37,2013-07-24 03:55:00,